Time,TemperatureF,DewpointF,PressureIn,WindDirection,WindDirectionDegrees,WindSpeedMPH,WindSpeedGustMPH,Humidity,HourlyPrecipIn,Conditions,Clouds,dailyrainin,SolarRadiationWatts/m^2,SoftwareType,DateUTC
2013-01-08 00:05:00,23.7,22.0,30.42,WNW,296,0.0,6.0,93,0.00,,,0.00,0,Wunderground v.1.15,2013-01-08 05:05:00,
2013-01-08 00:10:00,23.6,21.9,30.42,WNW,296,0.0,6.0,93,0.00,,,0.00,0,Wunderground v.1.15,2013-01-08 05:10:00,
2013-01-08 00:15:00,23.6,21.9,30.42,WNW,296,0.0,6.0,93,0.00,,,0.00,0,Wunderground v.1.15,2013-01-08 05:15:00,
2013-01-08 00:25:00,23.5,21.8,30.42,WNW,296,0.0,6.0,93,0.00,,,0.00,0,Wunderground v.1.15,2013-01-08 05:25:00,
2013-01-08 00:30:00,23.4,21.7,30.42,WNW,296,0.0,6.0,93,0.00,,,0.00,0,Wunderground v.1.15,2013-01-08 05:30:00,
2013-01-08 00:35:00,23.4,21.7,30.42,WNW,296,0.0,6.0,93,0.00,,,0.00,0,Wunderground v.1.15,2013-01-08 05:35:00,
2013-01-08 00:45:00,23.2,21.5,30.42,WNW,296,0.0,6.0,93,0.00,,,0.00,0,Wunderground v.1.15,2013-01-08 05:45:00,
2013-01-08 00:55:00,23.0,21.3,30.42,WNW,296,0.0,6.0,93,0.00,,,0.00,0,Wunderground v.1.15,2013-01-08 05:55:00,
2013-01-08 01:05:00,22.9,21.2,30.42,WNW,296,0.0,6.0,93,0.00,,,0.00,0,Wunderground v.1.15,2013-01-08 06:05:00,
2013-01-08 01:15:00,22.7,21.0,30.42,WNW,296,0.0,6.0,93,0.00,,,0.00,0,Wunderground v.1.15,2013-01-08 06:15:00,
2013-01-08 01:20:00,22.7,21.0,30.42,WNW,296,0.0,6.0,93,0.00,,,0.00,0,Wunderground v.1.15,2013-01-08 06:20:00,
2013-01-08 01:30:00,22.6,20.9,30.41,WNW,296,0.0,6.0,93,0.00,,,0.00,0,Wunderground v.1.15,2013-01-08 06:30:00,
2013-01-08 01:40:00,22.5,20.8,30.41,WNW,296,0.0,6.0,93,0.00,,,0.00,0,Wunderground v.1.15,2013-01-08 06:40:00,
2013-01-08 01:50:00,22.4,20.7,30.41,WNW,296,0.0,6.0,93,0.00,,,0.00,0,Wunderground v.1.15,2013-01-08 06:50:00,
2013-01-08 01:55:00,22.4,20.7,30.41,WNW,296,0.0,6.0,93,0.00,,,0.00,0,Wunderground v.1.15,2013-01-08 06:55:00,
2013-01-08 02:10:00,22.3,20.6,30.41,WNW,296,0.0,6.0,93,0.00,,,0.00,0,Wunderground v.1.15,2013-01-08 07:10:00,
2013-01-08 02:15:00,22.2,20.5,30.41,WNW,296,0.0,6.0,93,0.00,,,0.00,0,Wunderground v.1.15,2013-01-08 07:15:00,
2013-01-08 02:25:00,22.1,20.4,30.41,WNW,296,0.0,6.0,93,0.00,,,0.00,0,Wunderground v.1.15,2013-01-08 07:25:00,
2013-01-08 02:35:00,22.0,20.3,30.41,WNW,296,0.0,6.0,93,0.00,,,0.00,0,Wunderground v.1.15,2013-01-08 07:35:00,
2013-01-08 02:45:00,21.8,20.1,30.41,WNW,296,0.0,6.0,93,0.00,,,0.00,0,Wunderground v.1.15,2013-01-08 07:45:00,
2013-01-08 02:50:00,21.7,20.0,30.41,WNW,296,0.0,6.0,93,0.00,,,0.00,0,Wunderground v.1.15,2013-01-08 07:50:00,
2013-01-08 03:00:00,21.6,19.9,30.41,WNW,296,0.0,6.0,93,0.00,,,0.00,0,Wunderground v.1.15,2013-01-08 08:00:00,
2013-01-08 03:05:00,21.6,19.9,30.40,WNW,296,0.0,6.0,93,0.00,,,0.00,0,Wunderground v.1.15,2013-01-08 08:05:00,
2013-01-08 03:15:00,21.5,19.8,30.40,WNW,296,0.0,6.0,93,0.00,,,0.00,0,Wunderground v.1.15,2013-01-08 08:15:00,
2013-01-08 03:20:00,21.5,19.8,30.40,WNW,296,0.0,6.0,93,0.00,,,0.00,0,Wunderground v.1.15,2013-01-08 08:20:00,
2013-01-08 03:25:00,21.5,19.8,30.39,WNW,296,0.0,6.0,93,0.00,,,0.00,0,Wunderground v.1.15,2013-01-08 08:25:00,
2013-01-08 03:35:00,21.4,19.7,30.39,WNW,296,0.0,6.0,93,0.00,,,0.00,0,Wunderground v.1.15,2013-01-08 08:35:00,
2013-01-08 03:40:00,21.4,19.7,30.39,WNW,296,0.0,6.0,93,0.00,,,0.00,0,Wunderground v.1.15,2013-01-08 08:40:00,
2013-01-08 03:50:00,21.2,19.5,30.39,WNW,296,0.0,6.0,93,0.00,,,0.00,0,Wunderground v.1.15,2013-01-08 08:50:00,
2013-01-08 04:00:00,21.1,19.4,30.40,WNW,296,0.0,6.0,93,0.00,,,0.00,0,Wunderground v.1.15,2013-01-08 09:00:00,
2013-01-08 04:10:00,21.0,19.3,30.40,WNW,296,0.0,6.0,93,0.00,,,0.00,0,Wunderground v.1.15,2013-01-08 09:10:00,
2013-01-08 04:20:00,21.0,19.3,30.39,WNW,296,0.0,6.0,93,0.00,,,0.00,0,Wunderground v.1.15,2013-01-08 09:20:00,
2013-01-08 04:30:00,20.9,19.2,30.39,WNW,296,0.0,6.0,93,0.00,,,0.00,0,Wunderground v.1.15,2013-01-08 09:30:00,
2013-01-08 04:35:00,20.9,19.2,30.39,WNW,296,0.0,6.0,93,0.00,,,0.00,0,Wunderground v.1.15,2013-01-08 09:35:00,
2013-01-08 04:45:00,20.8,19.1,30.40,WNW,296,0.0,6.0,93,0.00,,,0.00,0,Wunderground v.1.15,2013-01-08 09:45:00,
2013-01-08 04:55:00,20.6,18.9,30.40,WNW,296,0.0,6.0,93,0.00,,,0.00,0,Wunderground v.1.15,2013-01-08 09:55:00,
2013-01-08 05:05:00,20.6,18.9,30.41,WNW,296,0.0,6.0,93,0.00,,,0.00,0,Wunderground v.1.15,2013-01-08 10:05:00,
2013-01-08 05:10:00,20.6,18.9,30.41,WNW,296,0.0,6.0,93,0.00,,,0.00,0,Wunderground v.1.15,2013-01-08 10:10:00,
2013-01-08 05:20:00,20.5,18.8,30.41,WNW,296,0.0,6.0,93,0.00,,,0.00,0,Wunderground v.1.15,2013-01-08 10:20:00,
2013-01-08 05:30:00,20.5,18.8,30.41,WNW,296,0.0,6.0,93,0.00,,,0.00,0,Wunderground v.1.15,2013-01-08 10:30:00,
2013-01-08 05:35:00,20.5,18.8,30.42,WNW,296,0.0,6.0,93,0.00,,,0.00,0,Wunderground v.1.15,2013-01-08 10:35:00,
2013-01-08 05:45:00,20.4,18.7,30.42,WNW,296,0.0,6.0,93,0.00,,,0.00,0,Wunderground v.1.15,2013-01-08 10:45:00,
2013-01-08 05:55:00,20.4,18.7,30.42,WNW,296,0.0,6.0,93,0.00,,,0.00,0,Wunderground v.1.15,2013-01-08 10:55:00,
2013-01-08 06:05:00,20.4,18.7,30.42,WNW,296,0.0,6.0,93,0.00,,,0.00,0,Wunderground v.1.15,2013-01-08 11:05:00,
2013-01-08 06:10:00,20.4,18.7,30.42,WNW,296,0.0,6.0,93,0.00,,,0.00,0,Wunderground v.1.15,2013-01-08 11:10:00,
2013-01-08 06:20:00,20.4,18.7,30.42,WNW,296,0.0,6.0,93,0.00,,,0.00,0,Wunderground v.1.15,2013-01-08 11:20:00,
2013-01-08 06:25:00,20.3,18.6,30.42,WNW,296,0.0,6.0,93,0.00,,,0.00,0,Wunderground v.1.15,2013-01-08 11:25:00,
2013-01-08 06:35:00,20.3,18.6,30.42,WNW,296,0.0,6.0,93,0.00,,,0.00,0,Wunderground v.1.15,2013-01-08 11:35:00,
2013-01-08 06:40:00,20.3,18.6,30.42,WNW,296,0.0,6.0,93,0.00,,,0.00,0,Wunderground v.1.15,2013-01-08 11:40:00,
2013-01-08 06:45:00,20.2,18.5,30.42,WNW,296,0.0,6.0,93,0.00,,,0.00,0,Wunderground v.1.15,2013-01-08 11:45:00,
2013-01-08 06:55:00,20.2,18.5,30.42,WNW,296,0.0,6.0,93,0.00,,,0.00,0,Wunderground v.1.15,2013-01-08 11:55:00,
2013-01-08 07:05:00,20.1,18.4,30.42,WNW,296,0.0,6.0,93,0.00,,,0.00,0,Wunderground v.1.15,2013-01-08 12:05:00,
2013-01-08 07:15:00,20.1,18.4,30.42,WNW,296,0.0,6.0,93,0.00,,,0.00,0,Wunderground v.1.15,2013-01-08 12:15:00,
2013-01-08 07:20:00,20.1,18.4,30.43,WNW,296,0.0,6.0,93,0.00,,,0.00,0,Wunderground v.1.15,2013-01-08 12:20:00,
2013-01-08 07:30:00,20.1,18.4,30.43,WNW,296,0.0,6.0,93,0.00,,,0.00,0,Wunderground v.1.15,2013-01-08 12:30:00,
2013-01-08 07:40:00,20.2,18.5,30.43,WNW,296,0.0,6.0,93,0.00,,,0.00,7,Wunderground v.1.15,2013-01-08 12:40:00,
2013-01-08 07:50:00,20.2,18.5,30.43,WNW,296,0.0,6.0,93,0.00,,,0.00,9,Wunderground v.1.15,2013-01-08 12:50:00,
2013-01-08 08:00:00,20.3,18.6,30.43,WNW,296,0.0,6.0,93,0.00,,,0.00,12,Wunderground v.1.15,2013-01-08 13:00:00,
2013-01-08 08:10:00,20.5,19.0,30.44,WNW,296,0.0,6.0,94,0.00,,,0.00,14,Wunderground v.1.15,2013-01-08 13:10:00,
2013-01-08 08:20:00,20.8,19.3,30.44,WNW,296,0.0,6.0,94,0.00,,,0.00,16,Wunderground v.1.15,2013-01-08 13:20:00,
2013-01-08 08:30:00,21.2,19.7,30.44,WNW,296,0.0,6.0,94,0.00,,,0.00,19,Wunderground v.1.15,2013-01-08 13:30:00,
2013-01-08 08:35:00,21.4,19.9,30.44,WNW,296,0.0,6.0,94,0.00,,,0.00,21,Wunderground v.1.15,2013-01-08 13:35:00,
2013-01-08 08:45:00,21.9,20.7,30.43,WNW,296,0.0,6.0,95,0.00,,,0.00,26,Wunderground v.1.15,2013-01-08 13:45:00,
2013-01-08 08:50:00,22.3,21.1,30.43,WNW,296,0.0,6.0,95,0.00,,,0.00,26,Wunderground v.1.15,2013-01-08 13:50:00,
2013-01-08 09:00:00,23.3,22.1,30.43,WNW,296,0.0,6.0,95,0.00,,,0.00,39,Wunderground v.1.15,2013-01-08 14:00:00,
2013-01-08 09:10:00,24.5,23.5,30.44,WNW,296,0.0,6.0,96,0.00,,,0.00,40,Wunderground v.1.15,2013-01-08 14:10:00,
2013-01-08 09:20:00,25.4,24.4,30.45,WNW,296,0.0,6.0,96,0.00,,,0.00,37,Wunderground v.1.15,2013-01-08 14:20:00,
2013-01-08 09:30:00,26.7,25.7,30.44,WNW,296,0.0,6.0,96,0.00,,,0.00,51,Wunderground v.1.15,2013-01-08 14:30:00,
2013-01-08 09:35:00,27.8,26.8,30.44,West,273,0.0,6.0,96,0.00,,,0.00,40,Wunderground v.1.15,2013-01-08 14:35:00,
2013-01-08 09:45:00,29.5,28.8,30.44,WNW,289,0.0,6.0,97,0.00,,,0.00,39,Wunderground v.1.15,2013-01-08 14:45:00,
2013-01-08 09:50:00,30.2,29.5,30.44,SSW,207,1.0,1.0,97,0.00,,,0.00,35,Wunderground v.1.15,2013-01-08 14:50:00,
2013-01-08 10:00:00,33.5,32.2,30.44,NW,304,2.0,2.0,95,0.00,,,0.00,120,Wunderground v.1.15,2013-01-08 15:00:00,
2013-01-08 10:10:00,35.9,32.4,30.43,NW,307,2.0,2.0,87,0.00,,,0.00,104,Wunderground v.1.15,2013-01-08 15:10:00,
2013-01-08 10:20:00,38.5,32.6,30.43,SW,229,2.0,6.0,79,0.00,,,0.00,121,Wunderground v.1.15,2013-01-08 15:20:00,
2013-01-08 10:30:00,40.2,33.2,30.43,SSW,212,3.0,3.0,76,0.00,,,0.00,141,Wunderground v.1.15,2013-01-08 15:30:00,
2013-01-08 10:45:00,41.6,33.2,30.42,WSW,238,3.0,6.0,72,0.00,,,0.00,148,Wunderground v.1.15,2013-01-08 15:45:00,
2013-01-08 10:55:00,42.2,33.5,30.41,West,281,3.0,6.0,71,0.00,,,0.00,183,Wunderground v.1.15,2013-01-08 15:55:00,
2013-01-08 11:05:00,42.7,33.6,30.41,West,281,4.0,6.0,70,0.00,,,0.00,128,Wunderground v.1.15,2013-01-08 16:05:00,
2013-01-08 11:15:00,43.3,33.4,30.40,WSW,240,6.0,6.0,68,0.00,,,0.00,155,Wunderground v.1.15,2013-01-08 16:15:00,
2013-01-08 11:25:00,43.9,34.0,30.39,WSW,257,3.0,10.0,68,0.00,,,0.00,158,Wunderground v.1.15,2013-01-08 16:25:00,
2013-01-08 11:35:00,44.4,34.1,30.39,WSW,240,3.0,6.0,67,0.00,,,0.00,179,Wunderground v.1.15,2013-01-08 16:35:00,
2013-01-08 11:45:00,44.9,33.8,30.40,West,273,5.0,5.0,65,0.00,,,0.00,153,Wunderground v.1.15,2013-01-08 16:45:00,
2013-01-08 11:50:00,45.1,34.4,30.40,WSW,257,4.0,6.0,66,0.00,,,0.00,167,Wunderground v.1.15,2013-01-08 16:50:00,
2013-01-08 11:55:00,45.2,34.1,30.40,WSW,252,4.0,4.0,65,0.00,,,0.00,116,Wunderground v.1.15,2013-01-08 16:55:00,
2013-01-08 12:00:00,45.2,34.1,30.40,West,279,3.0,6.0,65,0.00,,,0.00,100,Wunderground v.1.15,2013-01-08 17:00:00,
2013-01-08 12:10:00,45.1,33.6,30.39,WSW,252,5.0,5.0,64,0.00,,,0.00,135,Wunderground v.1.15,2013-01-08 17:10:00,
2013-01-08 12:15:00,45.2,33.7,30.39,SW,223,5.0,6.0,64,0.00,,,0.00,127,Wunderground v.1.15,2013-01-08 17:15:00,
2013-01-08 12:25:00,45.4,33.5,30.39,WNW,287,5.0,6.0,63,0.00,,,0.00,158,Wunderground v.1.15,2013-01-08 17:25:00,
2013-01-08 12:30:00,45.4,33.5,30.38,WSW,250,5.0,5.0,63,0.00,,,0.00,113,Wunderground v.1.15,2013-01-08 17:30:00,
2013-01-08 12:40:00,45.6,33.7,30.38,WSW,247,5.0,5.0,63,0.00,,,0.00,90,Wunderground v.1.15,2013-01-08 17:40:00,
2013-01-08 12:45:00,45.8,33.9,30.38,SW,235,3.0,6.0,63,0.00,,,0.00,86,Wunderground v.1.15,2013-01-08 17:45:00,
2013-01-08 12:55:00,45.8,33.5,30.38,West,263,4.0,6.0,62,0.00,,,0.00,98,Wunderground v.1.15,2013-01-08 17:55:00,
2013-01-08 13:00:00,45.8,33.5,30.37,SW,232,3.0,8.0,62,0.00,,,0.00,141,Wunderground v.1.15,2013-01-08 18:00:00,
2013-01-08 13:10:00,45.8,33.5,30.38,SW,227,4.0,4.0,62,0.00,,,0.00,54,Wunderground v.1.15,2013-01-08 18:10:00,
2013-01-08 13:20:00,46.0,33.3,30.38,WSW,244,4.0,4.0,61,0.00,,,0.00,77,Wunderground v.1.15,2013-01-08 18:20:00,
2013-01-08 13:30:00,46.3,34.0,30.38,WSW,244,2.0,9.0,62,0.00,,,0.00,70,Wunderground v.1.15,2013-01-08 18:30:00,
2013-01-08 13:40:00,46.3,33.2,30.38,SW,223,5.0,8.0,60,0.00,,,0.00,53,Wunderground v.1.15,2013-01-08 18:40:00,
2013-01-08 13:50:00,46.4,33.3,30.38,WSW,250,6.0,6.0,60,0.00,,,0.00,49,Wunderground v.1.15,2013-01-08 18:50:00,
2013-01-08 13:55:00,46.5,33.4,30.38,West,268,4.0,6.0,60,0.00,,,0.00,51,Wunderground v.1.15,2013-01-08 18:55:00,
2013-01-08 14:00:00,46.7,33.5,30.39,SW,235,4.0,6.0,60,0.00,,,0.00,84,Wunderground v.1.15,2013-01-08 19:00:00,
2013-01-08 14:10:00,46.9,33.3,30.38,West,272,3.0,3.0,59,0.00,,,0.00,127,Wunderground v.1.15,2013-01-08 19:10:00,
2013-01-08 14:20:00,46.9,33.7,30.39,West,259,4.0,4.0,60,0.00,,,0.00,91,Wunderground v.1.15,2013-01-08 19:20:00,
2013-01-08 14:25:00,47.2,34.0,30.39,WSW,237,3.0,6.0,60,0.00,,,0.00,151,Wunderground v.1.15,2013-01-08 19:25:00,
2013-01-08 14:35:00,47.0,33.8,30.39,WSW,240,3.0,6.0,60,0.00,,,0.00,77,Wunderground v.1.15,2013-01-08 19:35:00,
2013-01-08 14:40:00,47.2,33.6,30.39,WSW,246,3.0,3.0,59,0.00,,,0.00,120,Wunderground v.1.15,2013-01-08 19:40:00,
2013-01-08 14:45:00,47.1,33.9,30.39,WSW,246,2.0,6.0,60,0.00,,,0.00,97,Wunderground v.1.15,2013-01-08 19:45:00,
2013-01-08 14:55:00,47.4,33.8,30.39,SW,236,3.0,6.0,59,0.00,,,0.00,67,Wunderground v.1.15,2013-01-08 19:55:00,
2013-01-08 15:00:00,47.1,33.9,30.39,West,275,3.0,3.0,60,0.00,,,0.00,65,Wunderground v.1.15,2013-01-08 20:00:00,
2013-01-08 15:10:00,46.8,33.6,30.39,SW,235,2.0,2.0,60,0.00,,,0.00,51,Wunderground v.1.15,2013-01-08 20:10:00,
2013-01-08 15:20:00,46.4,33.7,30.39,West,263,1.0,6.0,61,0.00,,,0.00,109,Wunderground v.1.15,2013-01-08 20:20:00,
2013-01-08 15:30:00,46.6,33.0,30.39,WNW,290,3.0,3.0,59,0.00,,,0.00,51,Wunderground v.1.15,2013-01-08 20:30:00,
2013-01-08 15:35:00,46.7,32.7,30.40,West,260,3.0,6.0,58,0.00,,,0.00,30,Wunderground v.1.15,2013-01-08 20:35:00,
2013-01-08 15:45:00,46.3,32.3,30.40,West,277,3.0,6.0,58,0.00,,,0.00,21,Wunderground v.1.15,2013-01-08 20:45:00,
2013-01-08 15:50:00,46.1,32.1,30.40,SW,232,4.0,4.0,58,0.00,,,0.00,16,Wunderground v.1.15,2013-01-08 20:50:00,
2013-01-08 16:00:00,45.4,32.3,30.39,SW,229,3.0,3.0,60,0.00,,,0.00,12,Wunderground v.1.15,2013-01-08 21:00:00,
2013-01-08 16:10:00,44.3,32.5,30.40,SW,225,1.0,1.0,63,0.00,,,0.00,14,Wunderground v.1.15,2013-01-08 21:10:00,
2013-01-08 16:15:00,43.7,32.3,30.40,SW,226,1.0,6.0,64,0.00,,,0.00,14,Wunderground v.1.15,2013-01-08 21:15:00,
2013-01-08 16:20:00,42.9,32.3,30.39,SW,226,1.0,1.0,66,0.00,,,0.00,11,Wunderground v.1.15,2013-01-08 21:20:00,
2013-01-08 16:30:00,41.4,32.0,30.40,SW,226,0.0,6.0,69,0.00,,,0.00,7,Wunderground v.1.15,2013-01-08 21:30:00,
2013-01-08 16:35:00,40.7,31.7,30.40,SW,226,0.0,6.0,70,0.00,,,0.00,7,Wunderground v.1.15,2013-01-08 21:35:00,
2013-01-08 16:45:00,39.3,31.0,30.39,SW,226,0.0,6.0,72,0.00,,,0.00,5,Wunderground v.1.15,2013-01-08 21:45:00,
2013-01-08 16:55:00,37.9,30.7,30.39,SW,226,0.0,6.0,75,0.00,,,0.00,0,Wunderground v.1.15,2013-01-08 21:55:00,
2013-01-08 17:05:00,36.8,30.3,30.40,SW,226,0.0,6.0,77,0.00,,,0.00,0,Wunderground v.1.15,2013-01-08 22:05:00,
2013-01-08 17:15:00,35.6,29.4,30.40,SW,226,0.0,6.0,78,0.00,,,0.00,0,Wunderground v.1.15,2013-01-08 22:15:00,
2013-01-08 17:25:00,34.5,29.0,30.40,SW,226,0.0,6.0,80,0.00,,,0.00,0,Wunderground v.1.15,2013-01-08 22:25:00,
2013-01-08 17:40:00,33.2,28.3,30.41,SW,226,0.0,6.0,82,0.00,,,0.00,0,Wunderground v.1.15,2013-01-08 22:40:00,
2013-01-08 17:45:00,32.9,28.3,30.41,SW,226,0.0,6.0,83,0.00,,,0.00,0,Wunderground v.1.15,2013-01-08 22:45:00,
2013-01-08 17:55:00,32.0,27.7,30.41,SW,226,0.0,6.0,84,0.00,,,0.00,0,Wunderground v.1.15,2013-01-08 22:55:00,
2013-01-08 18:00:00,31.7,27.7,30.41,SW,226,0.0,6.0,85,0.00,,,0.00,0,Wunderground v.1.15,2013-01-08 23:00:00,
2013-01-08 18:10:00,31.2,27.2,30.41,SW,226,0.0,6.0,85,0.00,,,0.00,0,Wunderground v.1.15,2013-01-08 23:10:00,
2013-01-08 18:20:00,30.8,27.1,30.41,SW,226,0.0,6.0,86,0.00,,,0.00,0,Wunderground v.1.15,2013-01-08 23:20:00,
2013-01-08 18:25:00,30.5,27.1,30.41,SW,226,0.0,6.0,87,0.00,,,0.00,0,Wunderground v.1.15,2013-01-08 23:25:00,
2013-01-08 18:35:00,30.3,27.2,30.41,SW,226,0.0,6.0,88,0.00,,,0.00,0,Wunderground v.1.15,2013-01-08 23:35:00,
2013-01-08 18:45:00,30.0,27.2,30.41,SW,226,0.0,6.0,89,0.00,,,0.00,0,Wunderground v.1.15,2013-01-08 23:45:00,
2013-01-08 18:50:00,29.9,27.1,30.41,SW,226,0.0,6.0,89,0.00,,,0.00,0,Wunderground v.1.15,2013-01-08 23:50:00,
2013-01-08 19:05:00,29.6,26.8,30.41,SW,226,0.0,6.0,89,0.00,,,0.00,0,Wunderground v.1.15,2013-01-09 00:05:00,
2013-01-08 19:15:00,29.4,26.8,30.41,SW,226,0.0,6.0,90,0.00,,,0.00,0,Wunderground v.1.15,2013-01-09 00:15:00,
2013-01-08 19:25:00,29.2,26.6,30.41,SW,226,0.0,6.0,90,0.00,,,0.00,0,Wunderground v.1.15,2013-01-09 00:25:00,
2013-01-08 19:40:00,28.8,26.2,30.41,SW,226,0.0,6.0,90,0.00,,,0.00,0,Wunderground v.1.15,2013-01-09 00:40:00,
2013-01-08 19:50:00,28.5,25.9,30.42,SW,226,0.0,6.0,90,0.00,,,0.00,0,Wunderground v.1.15,2013-01-09 00:50:00,
2013-01-08 19:55:00,28.4,25.8,30.42,SW,226,0.0,6.0,90,0.00,,,0.00,0,Wunderground v.1.15,2013-01-09 00:55:00,
2013-01-08 20:05:00,28.1,25.8,30.42,SW,226,0.0,6.0,91,0.00,,,0.00,0,Wunderground v.1.15,2013-01-09 01:05:00,
2013-01-08 20:15:00,27.8,25.5,30.41,SW,226,0.0,6.0,91,0.00,,,0.00,0,Wunderground v.1.15,2013-01-09 01:15:00,
2013-01-08 20:20:00,27.7,25.4,30.41,SW,226,0.0,6.0,91,0.00,,,0.00,0,Wunderground v.1.15,2013-01-09 01:20:00,
2013-01-08 20:30:00,27.6,25.6,30.41,SW,226,0.0,6.0,92,0.00,,,0.00,0,Wunderground v.1.15,2013-01-09 01:30:00,
2013-01-08 20:40:00,27.6,25.6,30.42,SW,226,0.0,6.0,92,0.00,,,0.00,0,Wunderground v.1.15,2013-01-09 01:40:00,
2013-01-08 20:45:00,27.7,25.7,30.41,SW,226,0.0,6.0,92,0.00,,,0.00,0,Wunderground v.1.15,2013-01-09 01:45:00,
2013-01-08 20:55:00,27.6,25.6,30.41,SW,226,0.0,6.0,92,0.00,,,0.00,0,Wunderground v.1.15,2013-01-09 01:55:00,
2013-01-08 21:05:00,27.6,25.6,30.41,SW,226,0.0,6.0,92,0.00,,,0.00,0,Wunderground v.1.15,2013-01-09 02:05:00,
2013-01-08 21:15:00,27.5,25.5,30.41,SW,226,0.0,6.0,92,0.00,,,0.00,0,Wunderground v.1.15,2013-01-09 02:15:00,
2013-01-08 21:20:00,27.4,25.4,30.41,SW,226,0.0,6.0,92,0.00,,,0.00,0,Wunderground v.1.15,2013-01-09 02:20:00,
2013-01-08 21:30:00,27.2,25.2,30.41,SW,226,0.0,6.0,92,0.00,,,0.00,0,Wunderground v.1.15,2013-01-09 02:30:00,
2013-01-08 21:40:00,27.0,25.0,30.41,SW,226,0.0,6.0,92,0.00,,,0.00,0,Wunderground v.1.15,2013-01-09 02:40:00,
2013-01-08 21:45:00,26.9,24.9,30.41,SW,226,0.0,6.0,92,0.00,,,0.00,0,Wunderground v.1.15,2013-01-09 02:45:00,
2013-01-08 21:55:00,26.6,24.6,30.41,SW,226,0.0,6.0,92,0.00,,,0.00,0,Wunderground v.1.15,2013-01-09 02:55:00,
2013-01-08 22:05:00,26.5,24.8,30.42,SW,226,0.0,6.0,93,0.00,,,0.00,0,Wunderground v.1.15,2013-01-09 03:05:00,
2013-01-08 22:15:00,26.3,24.6,30.43,SW,226,0.0,6.0,93,0.00,,,0.00,0,Wunderground v.1.15,2013-01-09 03:15:00,
2013-01-08 22:25:00,26.2,24.5,30.43,SW,226,0.0,6.0,93,0.00,,,0.00,0,Wunderground v.1.15,2013-01-09 03:25:00,
2013-01-08 22:30:00,26.2,24.5,30.43,SW,226,0.0,6.0,93,0.00,,,0.00,0,Wunderground v.1.15,2013-01-09 03:30:00,
2013-01-08 22:40:00,26.1,24.4,30.43,SW,226,0.0,6.0,93,0.00,,,0.00,0,Wunderground v.1.15,2013-01-09 03:40:00,
2013-01-08 22:45:00,26.1,24.4,30.43,SW,226,0.0,6.0,93,0.00,,,0.00,0,Wunderground v.1.15,2013-01-09 03:45:00,
2013-01-08 22:50:00,26.1,24.4,30.43,SW,226,0.0,6.0,93,0.00,,,0.00,0,Wunderground v.1.15,2013-01-09 03:50:00,
2013-01-08 23:00:00,26.0,24.5,30.42,SW,226,0.0,6.0,94,0.00,,,0.00,0,Wunderground v.1.15,2013-01-09 04:00:00,
2013-01-08 23:05:00,26.0,24.5,30.42,SW,226,0.0,6.0,94,0.00,,,0.00,0,Wunderground v.1.15,2013-01-09 04:05:00,
2013-01-08 23:15:00,25.8,24.3,30.42,SW,226,0.0,6.0,94,0.00,,,0.00,0,Wunderground v.1.15,2013-01-09 04:15:00,
2013-01-08 23:20:00,25.8,24.3,30.42,SW,226,0.0,6.0,94,0.00,,,0.00,0,Wunderground v.1.15,2013-01-09 04:20:00,
2013-01-08 23:30:00,25.7,24.2,30.41,SW,226,0.0,6.0,94,0.00,,,0.00,0,Wunderground v.1.15,2013-01-09 04:30:00,
2013-01-08 23:40:00,25.7,24.2,30.41,SW,226,0.0,6.0,94,0.00,,,0.00,0,Wunderground v.1.15,2013-01-09 04:40:00,
2013-01-08 23:50:00,25.6,24.1,30.42,SW,226,0.0,6.0,94,0.00,,,0.00,0,Wunderground v.1.15,2013-01-09 04:50:00,